Weather observations for the past three days for
Belmar-Farmingdale
Imperial (Metric)
Date Time (edt) Wind (mph) Vis. (mi.) Weather Sky Cond. Temperature (ºF) Relative Humidity Wind Chill (°F) Heat Index (°F) Pressure Precipitation (in)
Air Dwpt 6 hour altimeter (in) sea level (mb) 1 hr 3 hr 6 hr
Max. Min.
21 16:56 S 6 10.00 Overcast SCT060 OVC100 80.1 69.1 69% 83 30.03 1016.9
21 15:56 S 12 10.00 Fair CLR 82.9 66.9 59% 86 30.03 1016.8
21 14:56 S 13 10.00 Fair CLR 84 66 55% 86 30.03 1016.8
21 13:56 S 9 10.00 Overcast SCT046 BKN070 OVC100 84 64.9 86 77 53% 86 30.04 1016.9
21 12:56 S 13 10.00 Mostly Cloudy FEW036 BKN055 BKN090 82.9 69.1 63% 87 30.04 1016.9
21 11:56 Calm 10.00 Overcast SCT036 BKN048 OVC090 82.9 69.1 63% 87 30.05 1017.4
21 10:56 SW 5 10.00 A Few Clouds FEW031 84.9 68 57% 88 30.04 1017.1
21 09:56 Calm 10.00 A Few Clouds FEW024 82 70 67% 86 30.05 1017.4
21 08:56 W 5 10.00 Fair CLR 80.1 70 71% 83 30.05 1017.5
21 07:56 W 5 10.00 Fair CLR 77 69.1 77 66.9 77% 79 30.06 1017.7
21 06:56 Calm 10.00 Fair CLR 72 68 87% 30.04 1017.2
21 05:56 Calm 10.00 Fair CLR 68 66 93% 30.03 1016.8
21 04:56 Calm 10.00 Fair CLR 66.9 66 97% 30.03 1016.6
21 03:56 Calm 10.00 A Few Clouds FEW100 69.1 66.9 93% 30.02 1016.6
21 02:56 W 3 10.00 Partly Cloudy SCT100 69.1 66 90% 30.05 1017.3
21 01:56 Calm 10.00 Fair CLR 71.1 66.9 77 71.1 87% 30.04 1017.1
21 00:56 Calm 10.00 Fair CLR 73 68 84% 30.05 1017.5
20 23:56 Calm 10.00 Fair CLR 73 68 84% 30.06 1017.9
20 22:56 Calm 10.00 Fair CLR 73 68 84% 30.08 1018.4
20 21:56 S 3 10.00 Fair CLR 73 68 84% 30.09 1018.7
20 20:56 S 3 10.00 Fair CLR 75 66.9 76% 76 30.08 1018.5
20 19:56 S 5 10.00 Fair CLR 77 64.9 82 77 66% 79 30.07 1018.2
20 18:56 S 7 10.00 Fair CLR 79 64.9 62% 81 30.07 1018.2
20 17:56 S 6 10.00 Fair CLR 79 64.9 62% 81 30.07 1018.2
20 16:56 S 9 10.00 Fair CLR 81 63 54% 82 30.08 1018.6
20 15:56 S 7 10.00 Mostly Cloudy BKN090 81 64 57% 83 30.09 1018.7
20 14:56 SE 8 10.00 Mostly Cloudy BKN046 BKN110 81 64 57% 83 30.1 1019.1
20 13:56 SE 12 10.00 Mostly Cloudy FEW043 BKN100 81 64 84 71.1 57% 83 30.11 1019.6
20 12:56 S 8 10.00 Overcast BKN047 OVC100 81 68 65% 84 30.12 1019.9
20 11:56 S 8 10.00 Overcast OVC100 82.9 64.9 55% 85 30.13 1020.1
20 10:56 SW 5 10.00 Fair CLR 81 63 54% 82 30.14 1020.4
20 09:56 S 5 10.00 Fair CLR 79 64.9 62% 81 30.14 1020.7
20 08:56 Vrbl 3 10.00 Fair CLR 75 66 74% 76 30.15 1020.9
20 07:56 SW 3 10.00 Fair CLR 71.1 64 72 64.9 79% 30.14 1020.8
20 06:56 Calm 10.00 Fair CLR 68 62.1 81% 30.14 1020.7
20 05:56 SW 5 10.00 Fair CLR 66 62.1 87% 30.14 1020.6
20 04:56 SW 5 10.00 Fair CLR 66.9 61 81% 30.14 1020.4
20 03:56 SW 3 10.00 Fair CLR 66 62.1 87% 30.13 1020.4
20 02:56 SW 6 10.00 Fair CLR 66.9 62.1 84% 30.13 1020.2
20 01:56 S 5 10.00 Fair CLR 66.9 63 73.9 66.9 87% 30.14 1020.7
20 00:56 SW 5 10.00 Fair CLR 68 62.1 81% 30.15 1020.9
19 23:56 S 5 10.00 Fair CLR 69.1 62.1 78% 30.16 1021.0
19 22:56 S 5 10.00 Fair CLR 69.1 62.1 78% 30.15 1020.8
19 21:56 S 3 10.00 Fair CLR 70 61 73% 30.15 1020.9
19 20:56 SE 3 10.00 Fair CLR 71.1 60.1 68% 30.14 1020.7
19 19:56 SE 5 10.00 Fair CLR 73.9 57.9 81 73.9 57% 30.12 1020.0
19 18:56 SE 7 10.00 Fair CLR 77 57.9 52% 79 30.11 1019.7
19 17:56 S 8 10.00 Fair CLR 78.1 60.1 54% 79 30.1 1019.4
19 16:56 E 9 10.00 Fair CLR 79 57.9 49% 80 30.11 1019.5
19 15:56 SE 8 10.00 Mostly Cloudy BKN065 79 57 47% 80 30.12 1019.7
19 14:56 E 8 10.00 Fair CLR 80.1 57.9 47% 81 30.12 1020.0
19 13:56 Vrbl 6 10.00 A Few Clouds FEW060 79 55.9 82.9 71.1 45% 80 30.13 1020.0
19 12:56 W 7 10.00 A Few Clouds FEW055 82 55.9 41% 82 30.14 1020.5
19 11:56 Vrbl 3 10.00 Fair CLR 80.1 57 45% 80 30.14 1020.5
19 10:56 NW 9 10.00 Fair CLR 78.1 57 48% 79 30.14 1020.5
19 09:56 NE 6 10.00 Fair CLR 75 57.9 55% 78 30.14 1020.4
19 08:56 N 8 10.00 Fair CLR 73.9 59 60% 30.14 1020.4
19 07:56 N 7 10.00 Partly Cloudy SCT070 71.1 59 71.1 66 66% 30.13 1020.0
19 06:56 N 5 10.00 Fair CLR 68 57.9 70% 30.11 1019.3
19 05:56 N 5 10.00 Fair CLR 66 55.9 70% 30.08 1018.4
19 04:56 N 8 10.00 Fair CLR 66.9 55.9 68% 30.06 1017.7
19 03:56 N 6 10.00 Fair CLR 68 57 68% 30.04 1017.2
19 02:56 N 8 10.00 Fair CLR 70 57.9 66% 30.03 1016.8
19 01:56 N 8 10.00 Fair CLR 71.1 59 79 71.1 66% 30.03 1016.6
19 00:56 N 6 10.00 Fair CLR 71.1 62.1 73% 30.02 1016.4
18 23:56 NW 7 10.00 Fair CLR 71.1 66 84% 30.01 1016.0
18 22:56 NW 5 10.00 Fair CLR 73 66 79% 30 1015.9
18 21:56 Calm 10.00 Fair CLR 75 66 74% 76 30 1015.7
18 20:56 Calm 10.00 Fair CLR 79 64.9 62% 81 29.98 1015.0
18 19:56 W 5 10.00 Fair CLR 79 66 82.9 79 65% 81 29.96 1014.4
18 18:56 Calm 10.00 Fair CLR 80.1 68 67% 83 29.94 1013.6
18 17:56 W 3 10.00 Mostly Cloudy BKN055 80.1 68 67% 83 29.93 1013.4
Date Time (edt) Wind (mph) Vis. (mi.) Weather Sky Cond. Air Dwpt Max. Min. Relative Humidity Wind Chill (°F) Heat Index (°F) altimeter (in) sea level (mb) 1 hr 3 hr 6 hr
6 hour
Temperature (ºF) Pressure Precipitation (in)